{"data":{"norad_id":53180,"epoch":"2026-09-19T19:31:25.297536Z","epoch_age_seconds":131562,"freshness":"FRESH","line1":"1 53180U 22083BA  26262.81348724  .00001232  00000+0  48794-4 0  9990","line2":"2 53180  53.1607 320.9693 0001207  85.8941 274.2199 15.33545633231376","mean_motion":15.33545633,"eccentricity":0.0001207,"inclination_deg":53.1607,"raan_deg":320.9693,"arg_perigee_deg":85.8941,"mean_anomaly_deg":274.2199,"bstar":4.8794e-5,"rev_number":23137,"period_min":93.900042425409,"perigee_km":464.41778178489,"apogee_km":466.06977390466,"semimajor_km":6843.3807778448,"source":"CELESTRAK","updated_at":"2026-09-20T09:00:40.187776Z"}}